Regional Weather Roundup
Issued by NWS

Home | Current Version | Previous Version | Graphics & Text | Print | Product List | Glossary On
Versions: 1 2 3 4 5 6 7 8 9 10 11 12 13 14 15 16 17 18 19 20 21 22 23 24 25 26 27 28 29 30 31 32 33 34 35 36 37 38 39 40 41 42 43 44 45 46 47 48 49 50
000
ASUS43 KMKX 302121
RWRWI

WISCONSIN REGIONAL WEATHER ROUNDUP
NATIONAL WEATHER SERVICE MILWAUKEE/SULLIVAN WI
400 PM CDT MON MAY 30 2016

NOTE: "FAIR" INDICATES FEW OR NO CLOUDS BELOW 12,000 FEET WITH NO
SIGNIFICANT WEATHER AND/OR OBSTRUCTIONS TO VISIBILITY.

WIZ001-002-006>008-014>016-023>028-302200-
NORTHWEST WISCONSIN

CITY           SKY/WX    TMP DP  RH WIND       PRES   REMARKS
SUPERIOR ARPT  CLOUDY    81  48  31 NE7       29.92F HX  80
ASHLAND        MOSUNNY   82  49  31 VRB3      29.95S HX  81
HAYWARD        PTSUNNY   78  47  33 SW6       29.96F
SIREN          MOSUNNY   81  48  31 W12       29.95F HX  80
CUMBERLAND     MOSUNNY   77  48  36 S6        29.97F
RICE LAKE      MOSUNNY   80  48  33 SW9       29.98F
CHETEK         MOSUNNY   80  53  39 SW5       29.97F HX  80
LADYSMITH      MOSUNNY   79  49  35 SW6       30.00F
EAU CLAIRE     SUNNY     82  50  32 VRB6      29.96F HX  81
MENOMONIE      SUNNY     84  50  30 W6        29.97F HX  82
NEW RICHMOND   SUNNY     80  49  33 SW5       29.97S HX  80
OSCEOLA        MOSUNNY   82  53  36 S9        29.98F HX  81
$$

WIZ003>005-009-010-017-018-302200-
NORTH CENTRAL WISCONSIN

CITY           SKY/WX    TMP DP  RH WIND       PRES   REMARKS
MANITOWISH WTR NOT AVBL
ARBOR VITAE    MOSUNNY   77  44  30 W12       29.99F
WOODRUFF       MOSUNNY   77  44  30 W12       29.99F
RHINELANDER    SUNNY     78  43  28 W10G17    30.00F
EAGLE RIVER      N/A     76  40  27 NW7       29.99S
LAND O LAKES   MOSUNNY   76  42  29 NW14G20   30.00F
PHILLIPS       PTSUNNY   76  52  41 NW6       29.99S
TOMAHAWK       MOSUNNY   74  46  37 NW5       30.00S
MEDFORD        MOSUNNY   76  51  42 W7        30.00S
MERRILL        MOSUNNY   76  49  39 W5        30.00S
$$

WIZ029-030-035-036-043>047-302200-
CENTRAL WISCONSIN

CITY           SKY/WX    TMP DP  RH WIND       PRES   REMARKS
WAUSAU         SUNNY     79  48  33 NW10      29.98F
MOSINEE        MOSUNNY   77  48  36 NW7       30.01S
MARSHFIELD     SUNNY     80  49  33 NW7       29.99F
STEVENS POINT  SUNNY     76  48  36 NW5       30.00S
WAUPACA        SUNNY     82  43  25 NW6       29.98F HX  80
WAUTOMA        SUNNY    N/A N/A N/A VRB5      29.98F
WISC RAPIDS    SUNNY     81  45  28 N3        30.00S HX  80
CAMP DOUGLAS   SUNNY     81  55  40 N5        29.98F HX  81
$$

WIZ011>013-019>022-031-037>040-048>050-302200-
NORTHEAST WISCONSIN

CITY           SKY/WX    TMP DP  RH WIND       PRES   REMARKS
ANTIGO         MOSUNNY   75  50  41 CALM      30.00F
SHAWANO        MOSUNNY   82  46  28 NW7       29.97F HX  80
OCONTO         SUNNY     81  50  34 W6        29.95F HX  80
STURGEON BAY   NOT AVBL
GREEN BAY      MOSUNNY   80  51  36 W9        29.97F HX  80
MANITOWOC      SUNNY     72  58  61 E6        29.98F
APPLETON       MOSUNNY   79  43  27 W8        29.97F
CLINTONVILLE   MOSUNNY   77  43  29 N7        29.97F
OSHKOSH        SUNNY     80  49  33 NW6       29.98F
$$

WIZ032>034-041-042-053>061-302200-
SOUTHWEST WISCONSIN

CITY           SKY/WX    TMP DP  RH WIND       PRES   REMARKS
LA CROSSE      SUNNY     83  49  30 SE5       29.97S HX  81
SPARTA         SUNNY     82  49  32 W6        29.98F HX  81
VIROQUA        SUNNY     81  44  27 CALM      30.01S
BOSCOBEL       SUNNY     84  47  27 VRB3      29.98F HX  82
PRAIRIE DU CHI SUNNY     82  42  23 S5        29.98S HX  80
PLATTEVILLE    SUNNY     81  45  28 CALM      30.00S HX  80
$$

WIZ056-057-062-063-064-067-068-302200-
SOUTH CENTRAL WISCONSIN

CITY           SKY/WX    TMP DP  RH WIND       PRES   REMARKS
REEDSBURG      SUNNY     80  50  35 SW5       29.98S
BARABOO/DELLS  SUNNY     81  43  25 NE5       29.99S
LONE ROCK      SUNNY     84  48  28 N5        29.98F HX  82
MINERAL POINT  SUNNY     81  37  21 CALM      30.01S
MADISON        MOSUNNY   82  50  32 N7        29.98F HX  81
MIDDLETON      SUNNY     82  47  29 N5        30.00S HX  80
WATERTOWN      SUNNY     80  54  40 N5        29.99R HX  80
MONROE         SUNNY     81  43  26 NW3       29.99S
JANESVILLE     SUNNY     84  46  26 N6        29.97F HX  82
$$

WIZ051-052-058>065-066-070>072-302200-
SOUTHEAST WISCONSIN

CITY           SKY/WX    TMP DP  RH WIND       PRES   REMARKS
MILWAUKEE      MOSUNNY   73  59  61 E12       29.99S
WAUKESHA       MOSUNNY   79  50  36 NW12      30.00S
MILWAUKEE/TIMM SUNNY     79  54  41 E7        29.99S
RACINE         SUNNY     74  58  57 SE9       30.01R
BURLINGTON     SUNNY     82  45  27 CALM      29.98F HX  80
KENOSHA        MOSUNNY   78  60  53 E12       29.99S
FOND DU LAC    SUNNY     80  53  39 NW9       29.98F HX  80
SHEBOYGAN      SUNNY     80  50  34 NW8       29.97F HX  80
WEST BEND      SUNNY     79  46  31 NW5       29.99R
JUNEAU         SUNNY     78  54  43 N6        30.00S
$$

LSZ147-162-302200-
LAKE SUPERIOR

STATION/POSITION TIME  TEMP    WIND        PRES    WAVE
                       AIR SEA DIR/SP/G            HT/PER
                 (UTC) (F)     (DEG/KT/KT) (MB)    (FT/S)
W MID LAKE BUOY  2050   47 38  230/  8/ 10 1014.6R   1
DEVILS ISLAND    2100   72     220/  5/  8 1013.9F
SAXON HARBOR     2000   74      70/  6/  6 1014.2
$$

LMZ867-665-643>646-302200-
LAKE MICHIGAN

STATION/POSITION TIME  TEMP    WIND        PRES    WAVE
                       AIR SEA DIR/SP/G            HT/PER
                 (UTC) (F)     (DEG/KT/KT) (MB)    (FT/S)
CHAMBERS ISLAND  2000   74     160/  4/  9 1014.6F
N MID LAKE BUOY  2050   53 50  200/ 12/ 12 1014.5F   1
NORTHPORT PIER   2000          130/  9/ 25 1014.6F
KEWAUNEE LAKESHO 2100   62     180/ 10/ 13 1014.7F
SHEBOYGAN LAKESH 2100   62     170/  9/ 10 1015.5F
PORT WASHINGTON  2040   68     140/  2/  4 1016.3F
S MID LAKE BUOY  2050   60 59  110/  4/  4 1015.6R   0
KENOSHA   LAKESH 2100   67     120/  4/  5 1015.2F
$$

TC  - TEMPERATURE IN CELSIUS
VSB - VISIBILITY IN STATUTE MILES
WCI - WIND CHILL INDEX
HX  - HEAT INDEX





USA.gov is the U.S. government's official web portal to all federal, state and local government web resources and services.